TimeCDT,TemperatureF,Dew PointF,Humidity,Sea Level PressureIn,VisibilityMPH,Wind Direction,Wind SpeedMPH,Gust SpeedMPH,PrecipitationIn,Events,Conditions,WindDirDegrees,DateUTC
12:53 AM,46.9,45.0,93,30.04,10.0,Calm,Calm,-,N/A,,Clear,0,2013-05-06 05:53:00
1:53 AM,46.0,44.1,93,30.01,10.0,Calm,Calm,-,N/A,,Clear,0,2013-05-06 06:53:00
2:53 AM,46.0,44.1,93,30.01,10.0,Calm,Calm,-,N/A,,Clear,0,2013-05-06 07:53:00
3:53 AM,45.0,43.0,93,30.01,10.0,Calm,Calm,-,N/A,,Clear,0,2013-05-06 08:53:00
4:53 AM,45.0,43.0,93,30.01,10.0,Calm,Calm,-,N/A,,Clear,0,2013-05-06 09:53:00
5:53 AM,45.0,43.0,93,30.01,10.0,Calm,Calm,-,N/A,,Clear,0,2013-05-06 10:53:00
6:53 AM,46.0,44.1,93,30.03,10.0,Calm,Calm,-,N/A,,Clear,0,2013-05-06 11:53:00
7:53 AM,57.0,48.9,74,30.04,10.0,Calm,Calm,-,N/A,,Clear,0,2013-05-06 12:53:00
8:53 AM,62.1,48.0,60,30.05,10.0,WSW,9.2,-,N/A,,Clear,250,2013-05-06 13:53:00
9:53 AM,64.9,48.0,54,30.04,10.0,WSW,9.2,-,N/A,,Clear,250,2013-05-06 14:53:00
10:53 AM,68.0,46.9,47,30.03,10.0,Variable,5.8,-,N/A,,Clear,0,2013-05-06 15:53:00
11:53 AM,69.1,46.9,45,30.02,10.0,Variable,4.6,-,N/A,,Clear,0,2013-05-06 16:53:00
12:53 PM,70.0,48.9,47,30.00,10.0,WSW,9.2,-,N/A,,Partly Cloudy,250,2013-05-06 17:53:00
1:53 PM,70.0,48.9,47,29.99,10.0,WSW,12.7,19.6,N/A,,Clear,250,2013-05-06 18:53:00
2:53 PM,71.1,48.9,45,29.97,10.0,WSW,8.1,19.6,N/A,,Clear,250,2013-05-06 19:53:00
3:53 PM,72.0,48.9,44,29.94,10.0,SW,9.2,19.6,N/A,,Clear,230,2013-05-06 20:53:00
4:53 PM,73.0,50.0,44,29.93,10.0,SW,8.1,-,N/A,,Clear,230,2013-05-06 21:53:00
5:53 PM,72.0,51.1,48,29.94,10.0,WSW,9.2,-,N/A,,Overcast,250,2013-05-06 22:53:00
6:53 PM,71.1,54.0,55,29.94,10.0,Calm,Calm,-,N/A,,Clear,0,2013-05-06 23:53:00
7:53 PM,66.0,55.9,70,29.95,10.0,Calm,Calm,-,N/A,,Clear,0,2013-05-07 00:53:00
8:53 PM,61.0,57.0,87,29.98,10.0,Calm,Calm,-,N/A,,Clear,0,2013-05-07 01:53:00
9:53 PM,59.0,55.9,90,29.99,10.0,Calm,Calm,-,N/A,,Clear,0,2013-05-07 02:53:00
10:53 PM,57.9,55.0,90,30.00,10.0,Calm,Calm,-,N/A,,Clear,0,2013-05-07 03:53:00
11:53 PM,57.0,54.0,89,30.00,10.0,Calm,Calm,-,N/A,,Clear,0,2013-05-07 04:53:00